Regional Weather Roundup
Issued by NWS

Home | Current Version | Previous Version | Graphics & Text | Print | Product List | Glossary On
Versions: 1 2 3 4 5 6 7 8 9 10 11 12 13 14 15 16 17 18 19 20 21 22 23 24 25 26 27 28 29 30 31 32 33 34 35 36 37 38 39 40 41 42 43 44 45 46 47 48 49 50
000
ASUS43 KTOP 180908
RWRKS

WEATHER ROUNDUP FOR KANSAS
NATIONAL WEATHER SERVICE GOODLAND KS
300 AM CST WED JAN 18 2017

NOTE:  "FAIR" INDICATES FEW OR NO CLOUDS BELOW 12,000 FEET WITH NO
SIGNIFICANT WEATHER AND/OR OBSTRUCTIONS TO VISIBILITY.

KSZ001>006-013>018-027>032-041>047-181000-
NORTHWEST KANSAS

CITY           SKY/WX    TMP DP  RH WIND       PRES   REMARKS
GOODLAND       CLEAR     29  27  92 SW7       30.00S
HAYS           CLOUDY    32  27  81 CALM      30.09F
HILL CITY      CLEAR     35  30  82 SW8       30.07F
RUSSELL        PTCLDY    32  28  85 SW9       30.07F
$$

KSZ061>065-074>080-084>089-181000-
SOUTHWEST KANSAS

CITY           SKY/WX    TMP DP  RH WIND       PRES   REMARKS
DODGE CITY     PTCLDY    32  29  88 S8        30.08F
ELKHART          N/A     37  29  73 S10         N/A  WCI  30
GARDEN CITY    CLEAR     31  28  89 S9        30.06F
GREAT BEND     CLOUDY    34  30  85 SW8       30.10F
LIBERAL        PTCLDY    36  28  75 SW8       30.07F
PRATT          MOCLDY    31  28  88 SW8       30.11F
$$

KSZ066>073-081>083-090>101-181000-
SOUTHEAST KANSAS

CITY           SKY/WX    TMP DP  RH WIND       PRES   REMARKS
CHANUTE        PTCLDY    30  29  96 SE3       30.16S
COFFEYVILLE    PTCLDY    32  31  96 E5        30.17S
HUTCHINSON     PTCLDY    31  28  89 S3        30.13S
MEDICINE LODGE   N/A     35  30  82 CALM      30.13S
NEWTON         PTCLDY    37  31  78 SW5       30.13S
PARSONS        PTCLDY    32  31  96 CALM      30.18R FOG
WICHITA INTL   CLOUDY    36  32  85 CALM      30.13S
WICHITA JABRA  PTCLDY    37  31  78 W7        30.13S
WICHITA MCCONL PTCLDY    38  31  77 W5        30.13S
WINFIELD       CLOUDY    37  33  85 CALM      30.15R
$$

KSZ007>012-019>026-033>040-048>060-102>105-181000-
NORTHEAST KANSAS

CITY           SKY/WX    TMP DP  RH WIND       PRES   REMARKS
CONCORDIA      CLOUDY    33  29  85 SW5       30.10S
EMPORIA        PTCLDY    28  27  96 S6        30.14R
LAWRENCE       FOG       24  24 100 CALM      30.16S VSB 1/4
MANHATTAN      CLOUDY    25  23  92 CALM      30.14F
MARYSVILLE     CLOUDY    27  27 100 S6        30.12S
OLATHE IND     FOG       28  27  96 S3        30.15F VSB 1/2
OLATHE EXE     FOG       30  30 100 S5        30.15S VSB 1/4
SALINA           N/A    N/A N/A N/A MISG        N/A
TOPEKA BILLARD CLOUDY    26  23  88 CALM      30.15F
TOPEKA FORBES  CLOUDY    27  25  92 CALM      30.13F FOG
$$




USA.gov is the U.S. government's official web portal to all federal, state and local government web resources and services.